EN

Hourly Weather Ladnoe

Today, 25 July, Sunday

Time Temperature Precipitation Wind Pressure Humidity
00:00 +12°C° 0 mm 0 mps 744 mmHg 70%
01:00 +12°C° 0 mm 0 mps 744 mmHg 70%
02:00 +13°C° 0 mm 1 mps 744 mmHg 68%
03:00 +14°C° 0 mm 1 mps 744 mmHg 69%
04:00 +14°C° 0 mm 1 mps 744 mmHg 69%
05:00 +14°C° 0 mm 1 mps 744 mmHg 69%
06:00 +16°C° 0 mm 1 mps 744 mmHg 63%
07:00 +19°C° 0 mm 1 mps 744 mmHg 56%
08:00 +21°C° 0 mm 1 mps 745 mmHg 49%
09:00 +22°C° 0 mm 1 mps 745 mmHg 45%
10:00 +23°C° 0 mm 1 mps 745 mmHg 41%
11:00 +24°C° 0 mm 2 mps 745 mmHg 37%
12:00 +24°C° 0 mm 1 mps 745 mmHg 40%
13:00 +24°C° 0 mm 1 mps 745 mmHg 42%
14:00 +24°C° 0 mm 1 mps 745 mmHg 45%
15:00 +23°C° 0 mm 1 mps 745 mmHg 50%
16:00 +23°C° 0 mm 1 mps 745 mmHg 55%
17:00 +22°C° 0 mm 1 mps 745 mmHg 60%
18:00 +21°C° 0 mm 1 mps 745 mmHg 61%
19:00 +20°C° 0 mm 1 mps 745 mmHg 61%
20:00 +20°C° 0 mm 1 mps 745 mmHg 62%
21:00 +19°C° 0 mm 1 mps 745 mmHg 65%
22:00 +18°C° 0 mm 1 mps 746 mmHg 68%
23:00 +16°C° 0 mm 1 mps 746 mmHg 71%

Tomorrow, 26 July, Monday

Time Temperature Precipitation Wind Pressure Humidity
00:00 +15°C° 0 mm 0 mps 746 mmHg 73%
01:00 +14°C° 0 mm 0 mps 746 mmHg 75%
02:00 +13°C° 0 mm 0 mps 746 mmHg 78%
03:00 +14°C° 0 mm 0 mps 746 mmHg 77%
04:00 +14°C° 0 mm 0 mps 746 mmHg 77%
05:00 +14°C° 0 mm 0 mps 746 mmHg 77%
06:00 +17°C° 0 mm 0 mps 746 mmHg 68%
07:00 +19°C° 0 mm 0 mps 747 mmHg 59%
08:00 +22°C° 0 mm 0 mps 747 mmHg 51%
09:00 +23°C° 0 mm 0 mps 747 mmHg 46%
10:00 +26°C° 0 mm 1 mps 747 mmHg 42%
11:00 +28°C° 0 mm 1 mps 747 mmHg 37%
12:00 +28°C° 0 mm 1 mps 747 mmHg 37%
13:00 +28°C° 0 mm 1 mps 747 mmHg 37%
14:00 +28°C° 0 mm 1 mps 746 mmHg 37%
15:00 +27°C° 0 mm 1 mps 746 mmHg 42%
16:00 +26°C° 0 mm 1 mps 746 mmHg 47%
17:00 +26°C° 0 mm 1 mps 746 mmHg 53%
18:00 +24°C° 0 mm 1 mps 746 mmHg 57%
19:00 +22°C° 0 mm 1 mps 746 mmHg 62%
20:00 +21°C° 0 mm 1 mps 746 mmHg 67%
21:00 +20°C° 0 mm 1 mps 747 mmHg 67%
22:00 +19°C° 0 mm 1 mps 747 mmHg 67%
23:00 +19°C° 0 mm 1 mps 747 mmHg 67%

Day after tomorrow, 27 July, Tuesday

Time Temperature Precipitation Wind Pressure Humidity
00:00 +19°C° 0 mm 1 mps 747 mmHg 68%
01:00 +18°C° 0 mm 1 mps 747 mmHg 69%
02:00 +18°C° 0 mm 1 mps 747 mmHg 70%
03:00 +18°C° 0 mm 1 mps 747 mmHg 71%
04:00 +18°C° 0 mm 1 mps 747 mmHg 73%
05:00 +18°C° 0 mm 1 mps 747 mmHg 75%
06:00 +20°C° 0 mm 1 mps 747 mmHg 69%
07:00 +22°C° 0 mm 1 mps 747 mmHg 62%
08:00 +25°C° 0 mm 1 mps 747 mmHg 56%
09:00 +26°C° 0 mm 1 mps 746 mmHg 51%
10:00 +28°C° 0 mm 2 mps 746 mmHg 46%
11:00 +29°C° 0 mm 2 mps 746 mmHg 41%
12:00 +28°C° 0 mm 2 mps 746 mmHg 44%
13:00 +28°C° 0 mm 1 mps 746 mmHg 47%
14:00 +27°C° 0 mm 1 mps 745 mmHg 49%
15:00 +27°C° 0.1 mm 1 mps 745 mmHg 52%
16:00 +26°C° 0.1 mm 1 mps 745 mmHg 55%
17:00 +25°C° 0.1 mm 1 mps 744 mmHg 58%
18:00 +24°C° 0.2 mm 1 mps 744 mmHg 63%
19:00 +23°C° 0.2 mm 1 mps 744 mmHg 69%
20:00 +22°C° 0.2 mm 1 mps 744 mmHg 74%
21:00 +21°C° 0 mm 1 mps 744 mmHg 76%
22:00 +19°C° 0 mm 2 mps 744 mmHg 77%
23:00 +19°C° 0 mm 2 mps 743 mmHg 79%

28 July, Wednesday

Time Temperature Precipitation Wind Pressure Humidity
00:00 +18°C° 0 mm 2 mps 743 mmHg 81%
01:00 +17°C° 0 mm 2 mps 743 mmHg 83%
02:00 +17°C° 0 mm 2 mps 743 mmHg 85%
03:00 +17°C° 0 mm 2 mps 742 mmHg 85%
04:00 +18°C° 0 mm 2 mps 742 mmHg 85%
05:00 +19°C° 0 mm 2 mps 741 mmHg 86%
06:00 +19°C° 0 mm 2 mps 741 mmHg 83%
07:00 +20°C° 0 mm 2 mps 741 mmHg 81%
08:00 +20°C° 0 mm 2 mps 740 mmHg 79%
09:00 +20°C° 0.2 mm 2 mps 740 mmHg 83%
10:00 +19°C° 0.2 mm 2 mps 740 mmHg 87%
11:00 +19°C° 0.2 mm 2 mps 740 mmHg 90%
12:00 +18°C° 1.2 mm 3 mps 739 mmHg 92%
13:00 +18°C° 1.2 mm 3 mps 739 mmHg 94%
14:00 +18°C° 1.2 mm 4 mps 738 mmHg 96%
15:00 +18°C° 0.4 mm 4 mps 738 mmHg 97%
16:00 +18°C° 0.4 mm 3 mps 737 mmHg 97%
17:00 +18°C° 0.4 mm 3 mps 737 mmHg 98%
18:00 +18°C° 0.4 mm 3 mps 737 mmHg 98%
19:00 +19°C° 0.4 mm 3 mps 736 mmHg 98%
20:00 +19°C° 0.4 mm 2 mps 736 mmHg 99%
21:00 +19°C° 0.1 mm 2 mps 736 mmHg 98%
22:00 +19°C° 0.1 mm 2 mps 735 mmHg 98%
23:00 +18°C° 0.1 mm 3 mps 735 mmHg 98%

29 July, Thursday

Time Temperature Precipitation Wind Pressure Humidity
00:00 +18°C° 0 mm 3 mps 735 mmHg 98%
01:00 +18°C° 0 mm 3 mps 735 mmHg 97%
02:00 +18°C° 0 mm 3 mps 735 mmHg 97%
03:00 +18°C° 0.1 mm 3 mps 735 mmHg 97%
04:00 +18°C° 0.1 mm 4 mps 735 mmHg 97%
05:00 +18°C° 0.1 mm 4 mps 735 mmHg 97%
06:00 +18°C° 0.1 mm 4 mps 735 mmHg 97%
07:00 +18°C° 0.1 mm 4 mps 735 mmHg 97%
08:00 +18°C° 0.1 mm 4 mps 735 mmHg 97%
09:00 +19°C° 0.2 mm 4 mps 735 mmHg 95%
10:00 +19°C° 0.2 mm 4 mps 736 mmHg 94%
11:00 +20°C° 0.2 mm 4 mps 736 mmHg 93%
12:00 +20°C° 0.4 mm 4 mps 736 mmHg 92%
13:00 +20°C° 0.4 mm 4 mps 737 mmHg 92%
14:00 +20°C° 0.4 mm 4 mps 737 mmHg 91%
15:00 +21°C° 0.5 mm 3 mps 737 mmHg 90%
16:00 +21°C° 0.5 mm 3 mps 737 mmHg 88%
17:00 +21°C° 0.5 mm 3 mps 737 mmHg 87%
18:00 +20°C° 0.4 mm 3 mps 737 mmHg 90%
19:00 +19°C° 0.4 mm 2 mps 737 mmHg 92%
20:00 +18°C° 0.4 mm 2 mps 737 mmHg 95%
21:00 +17°C° 0 mm 2 mps 737 mmHg 95%
22:00 +17°C° 0 mm 2 mps 737 mmHg 96%
23:00 +16°C° 0 mm 2 mps 738 mmHg 96%

30 July, Friday

Time Temperature Precipitation Wind Pressure Humidity
00:00 +16°C° 0 mm 2 mps 738 mmHg 97%
01:00 +16°C° 0 mm 2 mps 738 mmHg 97%
02:00 +16°C° 0 mm 2 mps 738 mmHg 97%
03:00 +16°C° 0 mm 2 mps 738 mmHg 96%
04:00 +16°C° 0 mm 2 mps 738 mmHg 96%
05:00 +16°C° 0 mm 1 mps 739 mmHg 96%
06:00 +18°C° 0 mm 2 mps 739 mmHg 89%
07:00 +19°C° 0 mm 2 mps 739 mmHg 83%
08:00 +21°C° 0 mm 2 mps 739 mmHg 77%
09:00 +24°C° 0 mm 2 mps 739 mmHg 67%
10:00 +25°C° 0 mm 2 mps 739 mmHg 57%
11:00 +27°C° 0 mm 2 mps 739 mmHg 47%
12:00 +27°C° 0 mm 2 mps 739 mmHg 49%
13:00 +26°C° 0 mm 2 mps 739 mmHg 51%
14:00 +26°C° 0 mm 2 mps 739 mmHg 54%
15:00 +26°C° 0 mm 2 mps 739 mmHg 56%
16:00 +26°C° 0 mm 1 mps 738 mmHg 58%
17:00 +26°C° 0 mm 1 mps 738 mmHg 60%
18:00 +24°C° 0 mm 1 mps 738 mmHg 65%
19:00 +23°C° 0 mm 2 mps 738 mmHg 70%
20:00 +20°C° 0 mm 2 mps 738 mmHg 75%
21:00 +19°C° 0 mm 2 mps 738 mmHg 76%
22:00 +19°C° 0 mm 2 mps 737 mmHg 78%
23:00 +18°C° 0 mm 2 mps 737 mmHg 79%
Show more